AUA97B BIKF-LOWW

Flight info

Callsign AUA97B
Flight time 3h 51m
Altitude 35000
Route OSKUM3A OSKUM DCT VALDI/N0438F350 DCT RAMUD DCT RAXLU DCT OMELO DCT EVIKU DCT BITSI DCT MIKOV MIKOV8W
Aircraft A321/M-SDE3FGHIRWY/LB1

Departure

Time 2026-04-24 22:06
Airport Keflavik International Airport (BIKF)

Arrival

Time 2026-04-25 01:57
Airport Vienna International Airport (LOWW)
Time Latitude Longitude Altitude Speed Heading
2026-04-24 21:37 63.99292 -22.62216 161 ft 0 kts 318°
2026-04-24 21:52 63.99285 -22.62203 161 ft 3 kts 309°
2026-04-24 21:52 63.99278 -22.62179 161 ft 3 kts 289°
2026-04-24 21:53 63.99275 -22.62122 162 ft 3 kts 256°
2026-04-24 21:53 63.99282 -22.62082 162 ft 3 kts 237°
2026-04-24 21:53 63.99290 -22.62059 162 ft 3 kts 216°
2026-04-24 21:53 63.99307 -22.62039 163 ft 3 kts 186°
2026-04-24 21:54 63.99319 -22.62038 163 ft 0 kts 174°
2026-04-24 21:57 63.99316 -22.62034 163 ft 2 kts 158°
2026-04-24 21:57 63.99290 -22.62000 163 ft 4 kts 160°
2026-04-24 21:57 63.99259 -22.61992 163 ft 7 kts 176°
2026-04-24 21:57 63.99197 -22.61983 162 ft 9 kts 168°
2026-04-24 21:58 63.99172 -22.61886 163 ft 8 kts 94°
2026-04-24 21:58 63.99172 -22.61714 164 ft 13 kts 89°
2026-04-24 21:58 63.99172 -22.61468 167 ft 17 kts 90°
2026-04-24 21:58 63.99172 -22.61215 168 ft 15 kts 90°
2026-04-24 21:59 63.99173 -22.61003 169 ft 6 kts 91°
2026-04-24 21:59 63.99153 -22.60952 169 ft 7 kts 166°
2026-04-24 21:59 63.99061 -22.60945 168 ft 17 kts 180°
2026-04-24 21:59 63.98948 -22.60945 167 ft 16 kts 179°
2026-04-24 22:00 63.98813 -22.60946 166 ft 23 kts 180°
2026-04-24 22:00 63.98642 -22.60941 163 ft 25 kts 178°
2026-04-24 22:00 63.98470 -22.60937 162 ft 24 kts 181°
2026-04-24 22:00 63.98307 -22.60937 162 ft 23 kts 181°
2026-04-24 22:01 63.98150 -22.60942 161 ft 22 kts 181°
2026-04-24 22:01 63.97998 -22.60946 160 ft 22 kts 180°
2026-04-24 22:01 63.97849 -22.60947 158 ft 21 kts 180°
2026-04-24 22:01 63.97704 -22.60947 157 ft 21 kts 180°
2026-04-24 22:02 63.97562 -22.60945 155 ft 20 kts 180°
2026-04-24 22:02 63.97424 -22.60945 154 ft 20 kts 180°
2026-04-24 22:02 63.97282 -22.60948 153 ft 23 kts 180°
2026-04-24 22:02 63.97104 -22.60947 151 ft 26 kts 180°
2026-04-24 22:03 63.96923 -22.60946 149 ft 26 kts 180°
2026-04-24 22:03 63.96746 -22.60946 147 ft 25 kts 180°
2026-04-24 22:03 63.96572 -22.60945 146 ft 24 kts 179°
2026-04-24 22:03 63.96482 -22.60918 145 ft 9 kts 151°
2026-04-24 22:04 63.96462 -22.60805 145 ft 9 kts 94°
2026-04-24 22:04 63.96462 -22.60634 144 ft 11 kts 89°
2026-04-24 22:04 63.96477 -22.60548 144 ft 4 kts 30°
2026-04-24 22:04 63.96508 -22.60544 145 ft 5 kts
2026-04-24 22:05 63.96518 -22.60545 145 ft 0 kts 359°
2026-04-24 22:05 63.96520 -22.60545 145 ft 2 kts 359°
2026-04-24 22:05 63.96746 -22.60544 149 ft 77 kts
2026-04-24 22:06 63.97561 -22.60545 158 ft 153 kts 360°
2026-04-24 22:06 63.98758 -22.60552 667 ft 173 kts
2026-04-24 22:06 63.99957 -22.60541 1582 ft 175 kts
2026-04-24 22:06 64.01227 -22.60513 1875 ft 192 kts
2026-04-24 22:07 64.02633 -22.60503 2081 ft 210 kts
2026-04-24 22:07 64.04121 -22.60507 2525 ft 216 kts
2026-04-24 22:07 64.05585 -22.59902 3039 ft 216 kts 32°
2026-04-24 22:07 64.06549 -22.57341 3421 ft 222 kts 72°
2026-04-24 22:08 64.06790 -22.53734 3615 ft 242 kts 91°
2026-04-24 22:08 64.06725 -22.49796 4133 ft 252 kts 95°
2026-04-24 22:08 64.06592 -22.45800 4799 ft 259 kts 95°
2026-04-24 22:08 64.06296 -22.41645 5417 ft 266 kts 110°
2026-04-24 22:09 64.05438 -22.37910 5984 ft 273 kts 123°
2026-04-24 22:09 64.04435 -22.34178 6621 ft 279 kts 121°
2026-04-24 22:09 64.03453 -22.30308 7208 ft 284 kts 120°
2026-04-24 22:09 64.02476 -22.26354 7839 ft 288 kts 119°
2026-04-24 22:10 64.01494 -22.22351 8475 ft 291 kts 119°
2026-04-24 22:10 64.00497 -22.18300 9105 ft 294 kts 120°
2026-04-24 22:10 63.99485 -22.14211 9744 ft 297 kts 120°
2026-04-24 22:10 63.98457 -22.10093 10364 ft 301 kts 120°
2026-04-24 22:11 63.97403 -22.05889 10678 ft 315 kts 120°
2026-04-24 22:11 63.96280 -22.01423 10804 ft 334 kts 120°
2026-04-24 22:11 63.95091 -21.96714 10961 ft 351 kts 120°
2026-04-24 22:11 63.93862 -21.91856 11436 ft 356 kts 120°
2026-04-24 22:12 63.92616 -21.86955 11990 ft 359 kts 120°
2026-04-24 22:12 63.91361 -21.82031 12578 ft 362 kts 120°
2026-04-24 22:12 63.90098 -21.77067 13140 ft 364 kts 120°
2026-04-24 22:12 63.88825 -21.72070 13703 ft 367 kts 120°
2026-04-24 22:13 63.87541 -21.67040 14248 ft 370 kts 120°
2026-04-24 22:13 63.86244 -21.61979 14735 ft 372 kts 120°
2026-04-24 22:13 63.84940 -21.56891 15223 ft 375 kts 120°
2026-04-24 22:13 63.83624 -21.51763 15713 ft 377 kts 120°
2026-04-24 22:14 63.82314 -21.46677 16180 ft 380 kts 120°
2026-04-24 22:14 63.80974 -21.41490 16639 ft 383 kts 120°
2026-04-24 22:14 63.79620 -21.36270 17105 ft 385 kts 119°
2026-04-24 22:14 63.78259 -21.31043 17554 ft 388 kts 119°
2026-04-24 22:15 63.76976 -21.25662 17986 ft 389 kts 112°
2026-04-24 22:15 63.76119 -21.19854 18416 ft 390 kts 101°
2026-04-24 22:15 63.75691 -21.13788 18824 ft 391 kts 96°
2026-04-24 22:15 63.75325 -21.07683 19208 ft 393 kts 96°
2026-04-24 22:16 63.74943 -21.01551 19572 ft 395 kts 96°
2026-04-24 22:16 63.74552 -20.95402 19929 ft 396 kts 96°
2026-04-24 22:16 63.74157 -20.89226 20287 ft 398 kts 96°
2026-04-24 22:16 63.73759 -20.83031 20631 ft 400 kts 97°
2026-04-24 22:17 63.73360 -20.76793 20971 ft 401 kts 97°
2026-04-24 22:17 63.72959 -20.70554 21305 ft 403 kts 97°
2026-04-24 22:17 63.72552 -20.64278 21648 ft 405 kts 97°
2026-04-24 22:17 63.72138 -20.57978 21984 ft 407 kts 97°
2026-04-24 22:18 63.71716 -20.51644 22317 ft 409 kts 97°
2026-04-24 22:18 63.71312 -20.45355 22648 ft 410 kts 96°
2026-04-24 22:18 63.70956 -20.38961 23003 ft 412 kts 95°
2026-04-24 22:18 63.70648 -20.32528 23348 ft 414 kts 94°
2026-04-24 22:19 63.70370 -20.26066 23691 ft 415 kts 94°
2026-04-24 22:19 63.70105 -20.19557 24017 ft 417 kts 94°
2026-04-24 22:19 63.69837 -20.13037 24304 ft 419 kts 94°
2026-04-24 22:19 63.69554 -20.06473 24592 ft 421 kts 94°
2026-04-24 22:20 63.69258 -19.99902 24877 ft 423 kts 94°
2026-04-24 22:20 63.68950 -19.93298 25161 ft 425 kts 95°
2026-04-24 22:20 63.68632 -19.86657 25444 ft 426 kts 95°
2026-04-24 22:20 63.68309 -19.80001 25717 ft 428 kts 95°
2026-04-24 22:21 63.67986 -19.73321 25996 ft 430 kts 95°
2026-04-24 22:21 63.67659 -19.66598 26264 ft 432 kts 95°
2026-04-24 22:21 63.67328 -19.59862 26539 ft 434 kts 95°
2026-04-24 22:21 63.66994 -19.53100 26808 ft 435 kts 95°
2026-04-24 22:22 63.66658 -19.46304 27077 ft 437 kts 95°
2026-04-24 22:22 63.66322 -19.39575 27340 ft 439 kts 95°
2026-04-24 22:22 63.65975 -19.32720 27602 ft 441 kts 95°
2026-04-24 22:22 63.65624 -19.25856 27848 ft 443 kts 95°
2026-04-24 22:23 63.65266 -19.18955 28092 ft 445 kts 95°
2026-04-24 22:23 63.64903 -19.12024 28345 ft 446 kts 95°
2026-04-24 22:23 63.64532 -19.05066 28597 ft 448 kts 95°
2026-04-24 22:23 63.64158 -18.98091 28834 ft 450 kts 95°
2026-04-24 22:24 63.63780 -18.91082 29064 ft 452 kts 95°
2026-04-24 22:24 63.63398 -18.84057 29281 ft 454 kts 95°
2026-04-24 22:24 63.63009 -18.76987 29498 ft 455 kts 95°
2026-04-24 22:24 63.62616 -18.69910 29707 ft 457 kts 95°
2026-04-24 22:25 63.62221 -18.62802 29891 ft 459 kts 96°
2026-04-24 22:25 63.61822 -18.55673 30069 ft 461 kts 96°
2026-04-24 22:25 63.61418 -18.48518 30247 ft 462 kts 96°
2026-04-24 22:25 63.61006 -18.41342 30399 ft 464 kts 96°
2026-04-24 22:26 63.60587 -18.34144 30547 ft 465 kts 96°
2026-04-24 22:26 63.60167 -18.26927 30746 ft 465 kts 96°
2026-04-24 22:26 63.59747 -18.19722 30939 ft 465 kts 96°
2026-04-24 22:26 63.59323 -18.12522 31132 ft 465 kts 96°
2026-04-24 22:27 63.58892 -18.05322 31314 ft 465 kts 96°
2026-04-24 22:27 63.58457 -17.98129 31493 ft 465 kts 96°
2026-04-24 22:27 63.58018 -17.90944 31682 ft 465 kts 96°
2026-04-24 22:27 63.57574 -17.83738 31856 ft 466 kts 96°
2026-04-24 22:28 63.57126 -17.76522 32032 ft 466 kts 96°
2026-04-24 22:28 63.56680 -17.69417 32209 ft 466 kts 96°
2026-04-24 22:28 63.56226 -17.62208 32398 ft 466 kts 96°
2026-04-24 22:28 63.55765 -17.54999 32564 ft 467 kts 96°
2026-04-24 22:29 63.54831 -17.40579 32924 ft 467 kts 96°
2026-04-24 22:29 63.54359 -17.33372 33115 ft 467 kts 96°
2026-04-24 22:29 63.53886 -17.26166 33305 ft 467 kts 96°
2026-04-24 22:30 63.53411 -17.18969 33493 ft 466 kts 96°
2026-04-24 22:30 63.52934 -17.11777 33679 ft 466 kts 97°
2026-04-24 22:30 63.52456 -17.04596 33872 ft 466 kts 97°
2026-04-24 22:30 63.51973 -16.97408 34048 ft 466 kts 97°
2026-04-24 22:31 63.51491 -16.90319 34229 ft 466 kts 97°
2026-04-24 22:31 63.50995 -16.83144 34418 ft 465 kts 97°
2026-04-24 22:31 63.50496 -16.75989 34569 ft 465 kts 97°
2026-04-24 22:31 63.49996 -16.68832 34713 ft 465 kts 97°
2026-04-24 22:32 63.49493 -16.61682 34853 ft 465 kts 97°
2026-04-24 22:32 63.48985 -16.54536 34993 ft 465 kts 97°
2026-04-24 22:32 63.48473 -16.47398 35135 ft 465 kts 97°
2026-04-24 22:32 63.47956 -16.40249 35276 ft 465 kts 97°
2026-04-24 22:33 63.47437 -16.33100 35422 ft 465 kts 97°
2026-04-24 22:33 63.46916 -16.25956 35464 ft 464 kts 98°
2026-04-24 22:33 63.45864 -16.11733 35464 ft 464 kts 98°
2026-04-24 22:34 63.44807 -15.97593 35464 ft 464 kts 98°
2026-04-24 22:34 63.43731 -15.83364 35464 ft 465 kts 98°
2026-04-24 22:35 63.42640 -15.69102 35463 ft 466 kts 98°
2026-04-24 22:35 63.41534 -15.54839 35465 ft 466 kts 99°
2026-04-24 22:36 63.40405 -15.40582 35462 ft 466 kts 99°
2026-04-24 22:36 63.39255 -15.26332 35463 ft 467 kts 99°
2026-04-24 22:37 63.38097 -15.12085 35467 ft 467 kts 99°
2026-04-24 22:37 63.36931 -14.97934 35469 ft 467 kts 100°
2026-04-24 22:38 63.35747 -14.83705 35468 ft 467 kts 100°
2026-04-24 22:38 63.34555 -14.69479 35466 ft 467 kts 101°
2026-04-24 22:39 63.33344 -14.55273 35468 ft 467 kts 101°
2026-04-24 22:39 63.32115 -14.41077 35466 ft 467 kts 101°
2026-04-24 22:40 63.30872 -14.26886 35465 ft 467 kts 101°
2026-04-24 22:40 63.29622 -14.12708 35470 ft 467 kts 101°
2026-04-24 22:41 63.28568 -14.00931 35465 ft 467 kts 102°
2026-04-24 22:41 63.27280 -13.86792 35466 ft 467 kts 102°
2026-04-24 22:42 63.25978 -13.72655 35461 ft 467 kts 102°
2026-04-24 22:42 63.24671 -13.58529 35458 ft 467 kts 102°
2026-04-24 22:43 63.23349 -13.44420 35455 ft 467 kts 102°
2026-04-24 22:43 63.22008 -13.30320 35455 ft 467 kts 103°
2026-04-24 22:44 63.20663 -13.16226 35453 ft 467 kts 103°
2026-04-24 22:44 63.19313 -13.02237 35448 ft 467 kts 103°
2026-04-24 22:45 63.17928 -12.88166 35442 ft 468 kts 103°
2026-04-24 22:45 63.16525 -12.74080 35438 ft 468 kts 104°
2026-04-24 22:46 63.15111 -12.59999 35433 ft 469 kts 104°
2026-04-24 22:46 63.13687 -12.45907 35432 ft 470 kts 104°
2026-04-24 22:47 63.12246 -12.31816 35427 ft 470 kts 104°
2026-04-24 22:47 63.10792 -12.17811 35426 ft 471 kts 104°
2026-04-24 22:48 63.09311 -12.03710 35422 ft 472 kts 104°
2026-04-24 22:48 63.07821 -11.89588 35420 ft 472 kts 105°
2026-04-24 22:49 63.06314 -11.75469 35419 ft 473 kts 105°
2026-04-24 22:49 63.04795 -11.61349 35417 ft 473 kts 105°
2026-04-24 22:50 63.03259 -11.47215 35416 ft 474 kts 105°
2026-04-24 22:50 63.01711 -11.33203 35415 ft 474 kts 105°
2026-04-24 22:51 63.00134 -11.19092 35414 ft 475 kts 105°
2026-04-24 22:51 62.98548 -11.04975 35413 ft 475 kts 105°
2026-04-24 22:52 62.96949 -10.90849 35411 ft 476 kts 106°
2026-04-24 22:52 62.95338 -10.76728 35411 ft 476 kts 106°
2026-04-24 22:53 62.93697 -10.62620 35411 ft 477 kts 106°
2026-04-24 22:53 62.92045 -10.48511 35411 ft 478 kts 106°
2026-04-24 22:54 62.90374 -10.34387 35410 ft 478 kts 106°
2026-04-24 22:54 62.88691 -10.20268 35403 ft 479 kts 107°
2026-04-24 22:55 62.87004 -10.06231 35401 ft 480 kts 107°
2026-04-24 22:55 62.85283 -9.92083 35400 ft 481 kts 107°
2026-04-24 22:56 62.83546 -9.77946 35411 ft 481 kts 107°
2026-04-24 22:56 62.81797 -9.63817 35413 ft 482 kts 107°
2026-04-24 22:57 62.80041 -9.49685 35414 ft 482 kts 107°
2026-04-24 22:57 62.78267 -9.35549 35408 ft 482 kts 107°
2026-04-24 22:58 62.76467 -9.21428 35404 ft 482 kts 107°
2026-04-24 22:58 62.74653 -9.07317 35402 ft 483 kts 107°
2026-04-24 22:59 62.72837 -8.93304 35392 ft 483 kts 108°
2026-04-24 23:00 62.70063 -8.72154 35390 ft 484 kts 108°
2026-04-24 23:00 62.68203 -8.58086 35384 ft 484 kts 108°
2026-04-24 23:01 62.66315 -8.44011 35374 ft 485 kts 108°
2026-04-24 23:01 62.64417 -8.29943 35360 ft 485 kts 108°
2026-04-24 23:02 62.62509 -8.15837 35380 ft 487 kts 108°
2026-04-24 23:02 62.60584 -8.01738 35388 ft 487 kts 108°
2026-04-24 23:03 62.58650 -7.87761 35372 ft 486 kts 108°
2026-04-24 23:03 62.56684 -7.73732 35366 ft 486 kts 108°
2026-04-24 23:04 62.54713 -7.59716 35351 ft 486 kts 108°
2026-04-24 23:04 62.52726 -7.45716 35354 ft 487 kts 108°
2026-04-24 23:05 62.50725 -7.31716 35351 ft 487 kts 108°
2026-04-24 23:05 62.48708 -7.17721 35353 ft 487 kts 108°
2026-04-24 23:06 62.46678 -7.03738 35355 ft 487 kts 108°
2026-04-24 23:06 62.44634 -6.89766 35361 ft 487 kts 108°
2026-04-24 23:07 62.42567 -6.75851 35367 ft 487 kts 108°
2026-04-24 23:07 62.40485 -6.61944 35364 ft 487 kts 108°
2026-04-24 23:08 62.38412 -6.48140 35362 ft 487 kts 108°
2026-04-24 23:08 62.36322 -6.34264 35360 ft 486 kts 108°
2026-04-24 23:09 62.34212 -6.20416 35362 ft 486 kts 108°
2026-04-24 23:09 62.32076 -6.06621 35359 ft 486 kts 108°
2026-04-24 23:10 62.29943 -5.92832 35354 ft 485 kts 108°
2026-04-24 23:10 62.27796 -5.79077 35354 ft 485 kts 108°
2026-04-24 23:11 62.25640 -5.65342 35344 ft 485 kts 108°
2026-04-24 23:11 62.23459 -5.51622 35337 ft 486 kts 108°
2026-04-24 23:12 62.21278 -5.38027 35336 ft 486 kts 108°
2026-04-24 23:12 62.19064 -5.24327 35338 ft 486 kts 108°
2026-04-24 23:13 62.16852 -5.10655 35335 ft 486 kts 108°
2026-04-24 23:13 62.14622 -4.97010 35334 ft 486 kts 108°
2026-04-24 23:14 62.12374 -4.83389 35333 ft 486 kts 109°
2026-04-24 23:14 62.10111 -4.69782 35330 ft 486 kts 109°
2026-04-24 23:15 62.07841 -4.56196 35326 ft 486 kts 109°
2026-04-24 23:15 62.05561 -4.42606 35324 ft 487 kts 109°
2026-04-24 23:16 62.03262 -4.29041 35318 ft 487 kts 109°
2026-04-24 23:16 62.00934 -4.15483 35315 ft 487 kts 109°
2026-04-24 23:17 61.98619 -4.02051 35308 ft 487 kts 109°
2026-04-24 23:17 61.96279 -3.88537 35305 ft 487 kts 109°
2026-04-24 23:18 61.93918 -3.75042 35297 ft 487 kts 109°
2026-04-24 23:18 61.91552 -3.61566 35294 ft 487 kts 109°
2026-04-24 23:19 61.89172 -3.48105 35287 ft 487 kts 110°
2026-04-24 23:19 61.86776 -3.34682 35282 ft 487 kts 110°
2026-04-24 23:20 61.84360 -3.21258 35272 ft 487 kts 110°
2026-04-24 23:20 61.81928 -3.07878 35267 ft 487 kts 110°
2026-04-24 23:21 61.79507 -2.94592 35255 ft 488 kts 110°
2026-04-24 23:21 61.77060 -2.81205 35260 ft 488 kts 110°
2026-04-24 23:22 61.74592 -2.67836 35249 ft 489 kts 110°
2026-04-24 23:22 61.72101 -2.54463 35253 ft 489 kts 110°
2026-04-24 23:23 61.69594 -2.41111 35251 ft 490 kts 110°
2026-04-24 23:23 61.67092 -2.27842 35252 ft 490 kts 110°
2026-04-24 23:24 61.64562 -2.14496 35246 ft 491 kts 110°
2026-04-24 23:24 61.62019 -2.01163 35254 ft 492 kts 111°
2026-04-24 23:25 61.59451 -1.87842 35246 ft 492 kts 111°
2026-04-24 23:25 61.56867 -1.74517 35249 ft 493 kts 111°
2026-04-24 23:26 61.54279 -1.61211 35239 ft 493 kts 111°
2026-04-24 23:26 61.51675 -1.47908 35243 ft 493 kts 111°
2026-04-24 23:27 61.49047 -1.34619 35235 ft 493 kts 111°
2026-04-24 23:27 61.46410 -1.21365 35237 ft 494 kts 112°
2026-04-24 23:28 61.43772 -1.08217 35229 ft 494 kts 112°
2026-04-24 23:28 61.41106 -0.94996 35225 ft 494 kts 112°
2026-04-24 23:29 61.38425 -0.81773 35219 ft 495 kts 112°
2026-04-24 23:29 61.35729 -0.68559 35222 ft 495 kts 112°
2026-04-24 23:30 61.33014 -0.55373 35211 ft 495 kts 112°
2026-04-24 23:30 61.30747 -0.44433 35207 ft 495 kts 112°
2026-04-24 23:31 61.27570 -0.29145 35206 ft 495 kts 112°
2026-04-24 23:31 61.24818 -0.16010 35202 ft 495 kts 113°
2026-04-24 23:32 61.22473 -0.05147 35194 ft 496 kts 118°
2026-04-24 23:32 61.20677 0.00955 35388 ft 495 kts 125°
2026-04-24 23:32 61.18473 0.06514 35200 ft 503 kts 135°
2026-04-24 23:33 61.13610 0.17065 35181 ft 509 kts 135°
2026-04-24 23:33 61.08713 0.27666 35179 ft 509 kts 135°
2026-04-24 23:34 61.03816 0.38233 35177 ft 509 kts 135°
2026-04-24 23:34 60.98905 0.48781 35172 ft 509 kts 135°
2026-04-24 23:35 60.93995 0.59289 35174 ft 509 kts 135°
2026-04-24 23:35 60.89066 0.69773 35173 ft 509 kts 135°
2026-04-24 23:36 60.84155 0.80133 35177 ft 509 kts 135°
2026-04-24 23:36 60.79210 0.90548 35176 ft 509 kts 136°
2026-04-24 23:37 60.74264 1.00935 35172 ft 509 kts 136°
2026-04-24 23:37 60.66830 1.16423 35166 ft 509 kts 136°
2026-04-24 23:38 60.61863 1.26715 35161 ft 509 kts 136°
2026-04-24 23:38 60.56890 1.36983 35155 ft 509 kts 136°
2026-04-24 23:39 60.51944 1.47131 35152 ft 508 kts 136°
2026-04-24 23:39 60.46951 1.57295 35150 ft 508 kts 136°
2026-04-24 23:40 60.41952 1.67449 35147 ft 509 kts 136°
2026-04-24 23:40 60.36953 1.77581 35153 ft 509 kts 136°
2026-04-24 23:41 60.31946 1.87684 35154 ft 509 kts 136°
2026-04-24 23:41 60.26928 1.97740 35151 ft 508 kts 137°
2026-04-24 23:42 60.21907 2.07762 35150 ft 508 kts 137°
2026-04-24 23:42 60.16890 2.17744 35148 ft 508 kts 137°
2026-04-24 23:43 60.11865 2.27692 35146 ft 507 kts 137°
2026-04-24 23:43 60.06830 2.37602 35145 ft 507 kts 137°
2026-04-24 23:44 60.01792 2.47483 35150 ft 507 kts 137°
2026-04-24 23:44 59.96776 2.57280 35148 ft 507 kts 137°
2026-04-24 23:45 59.91732 2.67094 35146 ft 506 kts 137°
2026-04-24 23:45 59.86677 2.76866 35141 ft 506 kts 137°
2026-04-24 23:46 59.81625 2.86588 35139 ft 505 kts 137°
2026-04-24 23:46 59.76572 2.96286 35135 ft 505 kts 137°
2026-04-24 23:47 59.71513 3.05937 35138 ft 504 kts 138°
2026-04-24 23:47 59.66454 3.15557 35138 ft 504 kts 138°
2026-04-24 23:48 59.61425 3.25081 35138 ft 504 kts 138°
2026-04-24 23:48 59.56354 3.34617 35139 ft 503 kts 138°
2026-04-24 23:49 59.51285 3.44121 35146 ft 503 kts 138°
2026-04-24 23:49 59.46213 3.53597 35143 ft 502 kts 138°
2026-04-24 23:50 59.41140 3.63037 35141 ft 502 kts 138°
2026-04-24 23:50 59.36061 3.72440 35140 ft 502 kts 138°
2026-04-24 23:51 59.30985 3.81808 35138 ft 501 kts 138°
2026-04-24 23:51 59.25900 3.91125 35139 ft 500 kts 139°
2026-04-24 23:52 59.20819 4.00404 35136 ft 500 kts 139°
2026-04-24 23:52 59.15735 4.09668 35149 ft 499 kts 139°
2026-04-24 23:53 59.10653 4.18881 35133 ft 499 kts 139°
2026-04-24 23:53 59.05572 4.28044 35133 ft 498 kts 139°
2026-04-24 23:54 59.00484 4.37174 35126 ft 498 kts 139°
2026-04-24 23:54 58.95397 4.46267 35121 ft 497 kts 139°
2026-04-24 23:55 58.90343 4.55276 35117 ft 497 kts 139°
2026-04-24 23:55 58.85254 4.64307 35125 ft 496 kts 139°
2026-04-24 23:56 58.80167 4.73307 35119 ft 496 kts 139°
2026-04-24 23:56 58.75069 4.82271 35128 ft 495 kts 139°
2026-04-24 23:57 58.69973 4.91191 35125 ft 495 kts 139°
2026-04-24 23:57 58.64886 5.00079 35119 ft 494 kts 139°
2026-04-24 23:58 58.59793 5.08935 35118 ft 494 kts 139°
2026-04-24 23:58 58.54732 5.17687 35114 ft 493 kts 139°
2026-04-24 23:59 58.49633 5.26471 35113 ft 493 kts 139°
2026-04-24 23:59 58.44534 5.35217 35114 ft 492 kts 139°
2026-04-25 00:00 58.39436 5.43946 35109 ft 492 kts 139°
2026-04-25 00:00 58.34341 5.52632 35102 ft 491 kts 139°
2026-04-25 00:01 58.29236 5.61291 35100 ft 491 kts 139°
2026-04-25 00:01 58.24130 5.69922 35093 ft 491 kts 139°
2026-04-25 00:02 58.19013 5.78520 35096 ft 491 kts 140°
2026-04-25 00:02 58.13895 5.87082 35102 ft 491 kts 140°
2026-04-25 00:03 58.08774 5.95634 35100 ft 491 kts 140°
2026-04-25 00:03 58.03681 6.04104 35090 ft 491 kts 140°
2026-04-25 00:04 57.98548 6.12602 35087 ft 490 kts 140°
2026-04-25 00:04 57.93415 6.21066 35085 ft 491 kts 140°
2026-04-25 00:05 57.88271 6.29498 35082 ft 491 kts 140°
2026-04-25 00:05 57.83123 6.37921 35077 ft 491 kts 140°
2026-04-25 00:06 57.77970 6.46326 35069 ft 491 kts 140°
2026-04-25 00:06 57.72812 6.54705 35071 ft 491 kts 140°
2026-04-25 00:07 57.67646 6.63064 35069 ft 491 kts 140°
2026-04-25 00:07 57.62477 6.71392 35070 ft 491 kts 141°
2026-04-25 00:08 57.57301 6.79692 35072 ft 491 kts 141°
2026-04-25 00:08 57.52118 6.87983 35064 ft 491 kts 141°
2026-04-25 00:09 57.46923 6.96259 35056 ft 492 kts 141°
2026-04-25 00:09 57.41703 7.04520 35053 ft 492 kts 142°
2026-04-25 00:10 57.36517 7.12704 35043 ft 493 kts 142°
2026-04-25 00:10 57.31293 7.20950 35026 ft 494 kts 142°
2026-04-25 00:11 57.26942 7.27779 35036 ft 494 kts 142°
2026-04-25 00:11 57.20794 7.37372 35022 ft 495 kts 142°
2026-04-25 00:12 57.15529 7.45560 35014 ft 495 kts 142°
2026-04-25 00:12 57.10251 7.53727 35013 ft 496 kts 143°
2026-04-25 00:13 57.04894 7.61729 35009 ft 494 kts 149°
2026-04-25 00:13 56.99178 7.68710 35008 ft 494 kts 150°
2026-04-25 00:14 56.93485 7.75639 35015 ft 494 kts 150°
2026-04-25 00:14 56.87755 7.82596 35019 ft 494 kts 150°
2026-04-25 00:15 56.82019 7.89540 35024 ft 494 kts 150°
2026-04-25 00:15 56.76276 7.96455 35028 ft 494 kts 150°
2026-04-25 00:16 56.70543 8.03335 35029 ft 493 kts 150°
2026-04-25 00:16 56.64804 8.10194 35034 ft 493 kts 150°
2026-04-25 00:17 56.59073 8.17016 35045 ft 492 kts 150°
2026-04-25 00:17 56.53349 8.23810 35054 ft 491 kts 150°
2026-04-25 00:18 56.47630 8.30570 35051 ft 490 kts 150°
2026-04-25 00:18 56.42886 8.36153 35052 ft 489 kts 150°
2026-04-25 00:19 56.36263 8.43928 35051 ft 488 kts 150°
2026-04-25 00:19 56.30574 8.50583 35054 ft 486 kts 151°
2026-04-25 00:20 56.25822 8.56120 35050 ft 485 kts 151°
2026-04-25 00:20 56.20152 8.62706 35046 ft 484 kts 151°
2026-04-25 00:21 56.14527 8.69211 35045 ft 483 kts 151°
2026-04-25 00:21 56.08882 8.75731 35049 ft 482 kts 151°
2026-04-25 00:22 56.03242 8.82225 35053 ft 481 kts 151°
2026-04-25 00:22 55.97613 8.88677 35054 ft 480 kts 151°
2026-04-25 00:23 55.91980 8.95107 35053 ft 480 kts 151°
2026-04-25 00:23 55.86349 9.01500 35050 ft 479 kts 151°
2026-04-25 00:24 55.80717 9.07837 35047 ft 479 kts 151°
2026-04-25 00:24 55.75095 9.14191 35047 ft 479 kts 150°
2026-04-25 00:25 55.69522 9.20498 35044 ft 478 kts 151°
2026-04-25 00:25 55.63903 9.26805 35046 ft 478 kts 151°
2026-04-25 00:26 55.58276 9.33077 35066 ft 478 kts 151°
2026-04-25 00:26 55.52655 9.39327 35071 ft 477 kts 151°
2026-04-25 00:27 55.47035 9.45582 35045 ft 477 kts 150°
2026-04-25 00:27 55.41421 9.51806 35047 ft 477 kts 151°
2026-04-25 00:28 55.35802 9.58002 35046 ft 476 kts 150°
2026-04-25 00:28 55.30189 9.64173 35052 ft 475 kts 150°
2026-04-25 00:29 55.24582 9.70309 35062 ft 474 kts 150°
2026-04-25 00:29 55.19014 9.76370 35067 ft 474 kts 150°
2026-04-25 00:30 55.13425 9.82460 35072 ft 473 kts 150°
2026-04-25 00:30 55.07844 9.88530 35079 ft 472 kts 150°
2026-04-25 00:31 55.02269 9.94538 35076 ft 471 kts 150°
2026-04-25 00:31 54.96702 10.00525 35075 ft 470 kts 150°
2026-04-25 00:32 54.91148 10.06491 35077 ft 469 kts 150°
2026-04-25 00:32 54.85623 10.12392 35073 ft 468 kts 150°
2026-04-25 00:33 54.80074 10.18303 35065 ft 467 kts 150°
2026-04-25 00:33 54.74534 10.24190 35064 ft 467 kts 150°
2026-04-25 00:34 54.68998 10.30071 35075 ft 466 kts 150°
2026-04-25 00:34 54.63481 10.35961 35078 ft 466 kts 150°
2026-04-25 00:35 54.57975 10.41824 35084 ft 465 kts 150°
2026-04-25 00:35 54.52503 10.47618 35085 ft 464 kts 150°
2026-04-25 00:36 54.46995 10.53427 35084 ft 464 kts 150°
2026-04-25 00:36 54.41497 10.59195 35085 ft 463 kts 150°
2026-04-25 00:37 54.35997 10.64948 35081 ft 462 kts 150°
2026-04-25 00:37 54.30510 10.70686 35078 ft 462 kts 150°
2026-04-25 00:38 54.25025 10.76405 35070 ft 461 kts 150°
2026-04-25 00:38 54.19540 10.82098 35074 ft 461 kts 150°
2026-04-25 00:39 54.14060 10.87766 35073 ft 460 kts 150°
2026-04-25 00:39 54.08613 10.93380 35079 ft 460 kts 150°
2026-04-25 00:40 54.03148 10.99007 35083 ft 459 kts 150°
2026-04-25 00:40 53.97672 11.04624 35085 ft 459 kts 150°
2026-04-25 00:41 53.92194 11.10212 35080 ft 459 kts 151°
2026-04-25 00:41 53.86718 11.15789 35079 ft 459 kts 151°
2026-04-25 00:42 53.81234 11.21357 35075 ft 459 kts 151°
2026-04-25 00:42 53.75789 11.26875 35072 ft 459 kts 151°
2026-04-25 00:43 53.70303 11.32417 35064 ft 460 kts 151°
2026-04-25 00:43 53.64804 11.37944 35059 ft 460 kts 152°
2026-04-25 00:44 53.59301 11.43462 35053 ft 461 kts 152°
2026-04-25 00:44 53.53785 11.48982 35047 ft 461 kts 152°
2026-04-25 00:45 53.48256 11.54496 35044 ft 462 kts 152°
2026-04-25 00:45 53.42714 11.60000 35038 ft 463 kts 153°
2026-04-25 00:46 53.37160 11.65506 35034 ft 464 kts 153°
2026-04-25 00:47 53.28843 11.73731 35038 ft 466 kts 154°
2026-04-25 00:47 53.23252 11.79229 35040 ft 467 kts 154°
2026-04-25 00:48 53.17640 11.84729 35038 ft 468 kts 154°
2026-04-25 00:48 53.12019 11.90227 35038 ft 469 kts 155°
2026-04-25 00:49 53.06380 11.95708 35035 ft 470 kts 155°
2026-04-25 00:49 53.00729 12.01199 35034 ft 471 kts 155°
2026-04-25 00:50 52.95065 12.06694 35028 ft 472 kts 155°
2026-04-25 00:50 52.89384 12.12187 35033 ft 473 kts 156°
2026-04-25 00:51 52.83690 12.17660 35034 ft 473 kts 156°
2026-04-25 00:51 52.78020 12.23091 35036 ft 474 kts 156°
2026-04-25 00:52 52.72306 12.28560 35043 ft 475 kts 156°
2026-04-25 00:52 52.66585 12.34015 35048 ft 475 kts 156°
2026-04-25 00:53 52.60861 12.39463 35049 ft 475 kts 156°
2026-04-25 00:53 52.55133 12.44893 35050 ft 475 kts 156°
2026-04-25 00:54 52.49441 12.50270 35054 ft 475 kts 156°
2026-04-25 00:54 52.43714 12.55657 35055 ft 475 kts 156°
2026-04-25 00:55 52.37982 12.61060 35059 ft 475 kts 156°
2026-04-25 00:55 52.32259 12.66435 35062 ft 474 kts 156°
2026-04-25 00:56 52.26523 12.71771 35058 ft 474 kts 156°
2026-04-25 00:56 52.20789 12.77097 35060 ft 474 kts 156°
2026-04-25 00:57 52.15056 12.82426 35060 ft 474 kts 156°
2026-04-25 00:57 52.09366 12.87695 35063 ft 473 kts 156°
2026-04-25 00:58 52.03632 12.92972 35067 ft 473 kts 156°
2026-04-25 00:58 51.97905 12.98243 35073 ft 473 kts 156°
2026-04-25 00:59 51.92177 13.03506 35078 ft 473 kts 156°
2026-04-25 00:59 51.86454 13.08743 35080 ft 473 kts 156°
2026-04-25 01:00 51.80725 13.13968 35082 ft 473 kts 156°
2026-04-25 01:00 51.75028 13.19138 35083 ft 472 kts 156°
2026-04-25 01:01 51.69294 13.24335 35078 ft 473 kts 156°
2026-04-25 01:01 51.63554 13.29523 35068 ft 473 kts 156°
2026-04-25 01:02 51.57814 13.34692 35065 ft 473 kts 156°
2026-04-25 01:02 51.52069 13.39856 35076 ft 473 kts 156°
2026-04-25 01:03 51.46323 13.45006 35065 ft 473 kts 156°
2026-04-25 01:03 51.40580 13.50140 35074 ft 473 kts 156°
2026-04-25 01:04 51.34831 13.55261 35073 ft 473 kts 156°
2026-04-25 01:04 51.29120 13.60342 35079 ft 473 kts 156°
2026-04-25 01:05 51.23370 13.65434 35078 ft 472 kts 156°
2026-04-25 01:05 51.17620 13.70504 35085 ft 472 kts 156°
2026-04-25 01:06 51.11862 13.75567 35076 ft 472 kts 156°
2026-04-25 01:06 51.06106 13.80620 35075 ft 472 kts 156°
2026-04-25 01:07 51.00345 13.85671 35071 ft 472 kts 156°
2026-04-25 01:07 50.94587 13.90695 35072 ft 472 kts 156°
2026-04-25 01:08 50.88825 13.95705 35069 ft 472 kts 156°
2026-04-25 01:08 50.84092 14.00055 35068 ft 476 kts 148°
2026-04-25 01:09 50.78270 14.08112 35076 ft 480 kts 141°
2026-04-25 01:09 50.73342 14.15229 35070 ft 480 kts 141°
2026-04-25 01:10 50.69231 14.21120 35076 ft 480 kts 141°
2026-04-25 01:10 50.64281 14.28205 35081 ft 480 kts 141°
2026-04-25 01:11 50.59344 14.35273 35080 ft 480 kts 141°
2026-04-25 01:11 50.54393 14.42344 35081 ft 481 kts 141°
2026-04-25 01:12 50.49432 14.49402 35088 ft 481 kts 141°
2026-04-25 01:12 50.44474 14.56461 35084 ft 482 kts 140°
2026-04-25 01:13 50.39632 14.63740 35076 ft 482 kts 139°
2026-04-25 01:13 50.34861 14.71132 35079 ft 482 kts 139°
2026-04-25 01:14 50.30061 14.78473 35075 ft 482 kts 139°
2026-04-25 01:14 50.25221 14.85748 35078 ft 482 kts 140°
2026-04-25 01:15 50.20398 14.92939 35076 ft 482 kts 140°
2026-04-25 01:15 50.15546 15.00167 35077 ft 482 kts 139°
2026-04-25 01:16 50.10692 15.07411 35079 ft 483 kts 139°
2026-04-25 01:16 50.05839 15.14647 35084 ft 483 kts 139°
2026-04-25 01:17 50.00980 15.21868 35088 ft 483 kts 139°
2026-04-25 01:17 49.96110 15.29090 35089 ft 483 kts 139°
2026-04-25 01:18 49.91230 15.36280 35092 ft 483 kts 139°
2026-04-25 01:18 49.86352 15.43449 35093 ft 483 kts 139°
2026-04-25 01:19 49.81506 15.50562 35092 ft 483 kts 139°
2026-04-25 01:19 49.76623 15.57709 35094 ft 483 kts 139°
2026-04-25 01:20 49.71730 15.64839 35072 ft 485 kts 140°
2026-04-25 01:20 49.66799 15.71983 35074 ft 487 kts 140°
2026-04-25 01:21 49.61843 15.79162 35079 ft 489 kts 139°
2026-04-25 01:21 49.56870 15.86354 35080 ft 491 kts 139°
2026-04-25 01:22 49.51882 15.93537 35086 ft 491 kts 140°
2026-04-25 01:22 49.46879 16.00709 35079 ft 491 kts 140°
2026-04-25 01:23 49.41877 16.07875 35080 ft 491 kts 139°
2026-04-25 01:23 49.36874 16.15029 35080 ft 491 kts 140°
2026-04-25 01:24 49.31835 16.22108 35080 ft 489 kts 144°
2026-04-25 01:24 49.29022 16.24958 35082 ft 483 kts 156°
2026-04-25 01:24 49.26011 16.27220 35083 ft 481 kts 158°
2026-04-25 01:25 49.19981 16.31677 35087 ft 481 kts 158°
2026-04-25 01:25 49.13994 16.36108 35087 ft 481 kts 158°
2026-04-25 01:26 49.07973 16.40556 35093 ft 481 kts 158°
2026-04-25 01:26 49.01949 16.44981 35097 ft 480 kts 158°
2026-04-25 01:27 48.95917 16.49389 35097 ft 480 kts 158°
2026-04-25 01:27 48.89897 16.53781 35099 ft 480 kts 158°
2026-04-25 01:28 48.80871 16.60372 35094 ft 480 kts 158°
2026-04-25 01:28 48.77800 16.62284 35087 ft 473 kts 169°
2026-04-25 01:28 48.74603 16.63403 35090 ft 471 kts 172°
2026-04-25 01:29 48.68233 16.65484 35086 ft 471 kts 172°
2026-04-25 01:29 48.61826 16.67571 35083 ft 471 kts 172°
2026-04-25 01:30 48.55410 16.69649 35076 ft 470 kts 173°
2026-04-25 01:30 48.48977 16.71426 35083 ft 470 kts 174°
2026-04-25 01:31 48.42528 16.73052 35078 ft 470 kts 174°
2026-04-25 01:31 48.36131 16.74714 35077 ft 467 kts 174°
2026-04-25 01:32 48.32979 16.75506 35073 ft 450 kts 176°
2026-04-25 01:32 48.29935 16.76108 35079 ft 432 kts 178°
2026-04-25 01:32 48.26987 16.76554 35078 ft 420 kts 180°
2026-04-25 01:32 48.24111 16.76406 35045 ft 411 kts 196°
2026-04-25 01:33 48.21400 16.75081 34206 ft 409 kts 213°
2026-04-25 01:33 48.19040 16.72702 33080 ft 409 kts 230°
2026-04-25 01:33 48.17329 16.69424 31861 ft 404 kts 247°
2026-04-25 01:33 48.16404 16.65436 30623 ft 400 kts 265°
2026-04-25 01:34 48.16426 16.61381 29535 ft 393 kts 283°
2026-04-25 01:34 48.17347 16.57578 28441 ft 387 kts 301°
2026-04-25 01:34 48.19036 16.54424 27043 ft 393 kts 319°
2026-04-25 01:34 48.21370 16.52243 25672 ft 402 kts 336°
2026-04-25 01:35 48.24118 16.51286 24312 ft 412 kts 354°
2026-04-25 01:35 48.27008 16.51558 22790 ft 421 kts
2026-04-25 01:35 48.29932 16.52172 21063 ft 428 kts
2026-04-25 01:35 48.32888 16.52803 19629 ft 429 kts
2026-04-25 01:36 48.35823 16.53475 18436 ft 424 kts
2026-04-25 01:36 48.38565 16.55054 17233 ft 422 kts 27°
2026-04-25 01:36 48.40829 16.57812 16065 ft 420 kts 45°
2026-04-25 01:36 48.42415 16.61487 14907 ft 420 kts 63°
2026-04-25 01:37 48.43165 16.65711 13755 ft 420 kts 81°
2026-04-25 01:37 48.43049 16.70091 12469 ft 418 kts 95°
2026-04-25 01:37 48.42627 16.74397 11248 ft 415 kts 99°
2026-04-25 01:37 48.41603 16.78448 10536 ft 417 kts 120°
2026-04-25 01:38 48.39763 16.81786 10075 ft 408 kts 140°
2026-04-25 01:38 48.37431 16.83964 9560 ft 384 kts 159°
2026-04-25 01:38 48.34923 16.84939 9034 ft 362 kts 177°
2026-04-25 01:38 48.32487 16.84844 8528 ft 341 kts 194°
2026-04-25 01:39 48.30285 16.83854 8021 ft 321 kts 208°
2026-04-25 01:39 48.28316 16.82517 7548 ft 309 kts 209°
2026-04-25 01:39 48.26385 16.81210 7081 ft 299 kts 209°
2026-04-25 01:39 48.24513 16.79946 6600 ft 290 kts 209°
2026-04-25 01:40 48.22707 16.78727 6128 ft 279 kts 210°
2026-04-25 01:40 48.20978 16.77570 5619 ft 266 kts 206°
2026-04-25 01:40 48.19163 16.77053 5170 ft 267 kts 187°
2026-04-25 01:40 48.17343 16.76946 4816 ft 255 kts 187°
2026-04-25 01:41 48.15608 16.76833 4425 ft 243 kts 187°
2026-04-25 01:41 48.13969 16.76725 4066 ft 227 kts 188°
2026-04-25 01:41 48.12453 16.76592 3776 ft 211 kts 189°
2026-04-25 01:41 48.10995 16.76452 3435 ft 209 kts 189°
2026-04-25 01:42 48.09550 16.76292 3094 ft 205 kts 195°
2026-04-25 01:42 48.08285 16.75566 2841 ft 193 kts 220°
2026-04-25 01:42 48.07343 16.74190 2617 ft 182 kts 243°
2026-04-25 01:42 48.06855 16.72523 2483 ft 175 kts 263°
2026-04-25 01:43 48.06788 16.70771 2367 ft 161 kts 282°
2026-04-25 01:43 48.07079 16.69251 2283 ft 146 kts 300°
2026-04-25 01:43 48.07514 16.67926 2162 ft 139 kts 300°
2026-04-25 01:43 48.07943 16.66619 1994 ft 141 kts 300°
2026-04-25 01:44 48.08373 16.65307 1817 ft 140 kts 300°
2026-04-25 01:44 48.08806 16.63994 1603 ft 141 kts 300°
2026-04-25 01:44 48.09242 16.62659 1393 ft 143 kts 298°
2026-04-25 01:44 48.09677 16.61321 1208 ft 143 kts 297°
2026-04-25 01:45 48.10109 16.59990 994 ft 142 kts 297°
2026-04-25 01:45 48.10543 16.58671 842 ft 140 kts 297°
2026-04-25 01:45 48.10963 16.57379 681 ft 137 kts 297°
2026-04-25 01:45 48.11366 16.56140 645 ft 124 kts 297°
2026-04-25 01:46 48.11749 16.54938 966 ft 139 kts 297°
2026-04-25 01:46 48.12188 16.53564 1841 ft 152 kts 298°
2026-04-25 01:46 48.12645 16.52077 2304 ft 166 kts 296°
2026-04-25 01:46 48.12755 16.50235 2511 ft 198 kts 261°
2026-04-25 01:47 48.11974 16.48384 2801 ft 227 kts 225°
2026-04-25 01:47 48.10499 16.47427 3453 ft 240 kts 193°
2026-04-25 01:47 48.08822 16.47243 4146 ft 243 kts 186°
2026-04-25 01:47 48.07122 16.47532 4788 ft 255 kts 165°
2026-04-25 01:48 48.05618 16.48913 4970 ft 260 kts 134°
2026-04-25 01:48 48.04509 16.51058 4791 ft 261 kts 124°
2026-04-25 01:48 48.03489 16.53276 4536 ft 257 kts 123°
2026-04-25 01:48 48.02491 16.55478 4303 ft 255 kts 123°
2026-04-25 01:49 48.01505 16.57657 4130 ft 248 kts 123°
2026-04-25 01:49 48.00565 16.59730 4013 ft 235 kts 123°
2026-04-25 01:49 47.99682 16.61669 4009 ft 218 kts 123°
2026-04-25 01:49 47.98836 16.63522 4010 ft 215 kts 123°
2026-04-25 01:50 47.97994 16.65364 4014 ft 214 kts 123°
2026-04-25 01:50 47.97153 16.67198 4005 ft 214 kts 123°
2026-04-25 01:50 47.96315 16.69026 4009 ft 214 kts 123°
2026-04-25 01:50 47.95476 16.70856 4005 ft 214 kts 123°
2026-04-25 01:51 47.94694 16.72740 4008 ft 212 kts 109°
2026-04-25 01:51 47.94511 16.74876 3946 ft 206 kts 78°
2026-04-25 01:51 47.94931 16.76852 3765 ft 196 kts 53°
2026-04-25 01:51 47.95794 16.78341 3594 ft 187 kts 30°
2026-04-25 01:52 47.96919 16.79175 3454 ft 177 kts
2026-04-25 01:52 47.98100 16.79306 3331 ft 170 kts 348°
2026-04-25 01:52 47.99210 16.78789 3201 ft 166 kts 329°
2026-04-25 01:52 48.00113 16.77735 3078 ft 165 kts 314°
2026-04-25 01:53 48.00918 16.76512 2952 ft 165 kts 315°
2026-04-25 01:53 48.01722 16.75302 2990 ft 164 kts 315°
2026-04-25 01:53 48.02577 16.74173 2998 ft 165 kts 325°
2026-04-25 01:53 48.03563 16.73286 2846 ft 165 kts 328°
2026-04-25 01:54 48.04545 16.72407 2667 ft 164 kts 328°
2026-04-25 01:54 48.05516 16.71535 2483 ft 160 kts 328°
2026-04-25 01:54 48.06406 16.70613 2296 ft 153 kts 317°
2026-04-25 01:54 48.06996 16.69331 2123 ft 148 kts 301°
2026-04-25 01:55 48.07466 16.67987 1986 ft 143 kts 301°
2026-04-25 01:55 48.07911 16.66676 1932 ft 142 kts 300°
2026-04-25 01:55 48.08348 16.65364 1788 ft 141 kts 300°
2026-04-25 01:55 48.08778 16.64059 1609 ft 140 kts 299°
2026-04-25 01:56 48.09209 16.62749 1420 ft 141 kts 299°
2026-04-25 01:56 48.09637 16.61440 1220 ft 140 kts 297°
2026-04-25 01:56 48.10067 16.60123 1007 ft 141 kts 297°
2026-04-25 01:56 48.10490 16.58825 834 ft 141 kts 297°
2026-04-25 01:57 48.11325 16.56268 618 ft 124 kts 296°
2026-04-25 01:57 48.11628 16.55346 612 ft 73 kts 295°
2026-04-25 01:57 48.11774 16.54898 617 ft 27 kts 296°
2026-04-25 01:58 48.11880 16.54684 616 ft 24 kts 318°
2026-04-25 01:58 48.11967 16.54587 625 ft 17 kts 325°
2026-04-25 01:58 48.12054 16.54555 613 ft 9 kts 27°
2026-04-25 01:58 48.12066 16.54635 612 ft 10 kts 108°
2026-04-25 01:59 48.12018 16.54788 622 ft 22 kts 116°
2026-04-25 01:59 48.11942 16.55022 615 ft 25 kts 116°
2026-04-25 01:59 48.11867 16.55256 615 ft 25 kts 116°
2026-04-25 01:59 48.11791 16.55488 611 ft 25 kts 116°
2026-04-25 02:00 48.11718 16.55715 614 ft 24 kts 116°
2026-04-25 02:00 48.11644 16.55937 616 ft 24 kts 116°
2026-04-25 02:00 48.11594 16.56092 616 ft 9 kts 115°
2026-04-25 02:00 48.11598 16.56169 619 ft 8 kts 48°
2026-04-25 02:01 48.11653 16.56237 617 ft 13 kts 37°
2026-04-25 02:01 48.11741 16.56307 616 ft 11 kts 36°
2026-04-25 02:01 48.11746 16.56404 609 ft 10 kts 113°
2026-04-25 02:01 48.11715 16.56467 620 ft 6 kts 162°
2026-04-25 02:02 48.11676 16.56458 609 ft 6 kts 200°
2026-04-25 02:02 48.11661 16.56448 609 ft 1 kts 205°
2026-04-25 02:02 48.11655 16.56443 614 ft 1 kts 205°
2026-04-25 02:02 48.11653 16.56442 615 ft 0 kts 206°